Location: Great Malvern
(52.1167°N, 2.3167°W)
Time: 11:01:13
(UTC+00:00)

CZ-2C R/B - Pass Details

Date: 18 September 2020
Orbit: 785 x 870 km, 98.2° (Epoch: 25 October)

Event Time Altitude Azimuth Distance (km) Brightness Sun altitude
Rises 19:15:44 0° 19° (NNE) 3,408 5.8 -9.9°
Reaches altitude 10° 19:18:17 10° 28° (NNE) 2,481 5.0 -10.2°
Maximum altitude 19:23:24 38° 96° (E) 1,295 3.2 -11.0°
Drops below altitude 10° 19:28:33 10° 163° (SSE) 2,503 4.8 -11.7°
Sets 19:31:07 0° 171° (S) 3,441 5.6 -12.1°
